Simultaneous Nadir Overpasses (SNOs) Predictions

Prediction of SNOs between AQUA and NOAA-19 Satellite Orbit:

Table of predicted SNOs for the next 14.0 days since TLE Epoch: 11/2/2018
Index Date (AQUA) Time (AQUA) Lat,Lon (AQUA) SZA (AQUA ) Date (NOAA-19) Time (NOAA-19) Lat,Lon (NOAA-19) SZA (NOAA-19 ) Distance(km) Time Diff (sec)
1 11/04/2018 18:01:47 -80.66, 52.72 82.44 11/04/2018 18:01:39 -80.67, 52.69 82.43 1.05 8
2 11/06/2018 23:35:30 80.67, 149.17 98.26 11/06/2018 23:35:09 80.66, 149.15 98.26 1.40 21
3 11/07/2018 00:24:57 -80.67, -43.19 81.74 11/07/2018 00:26:10 -80.67, -43.22 81.76 0.59 73
4 11/09/2018 05:09:13 -80.65,-114.09 81.13 11/09/2018 05:08:41 -80.66,-114.01 81.11 1.79 32
5 11/09/2018 05:58:39 80.66, 53.54 98.89 11/09/2018 05:59:40 80.67, 53.41 98.89 2.86 61
6 11/11/2018 10:42:55 80.64, -17.39 99.49 11/11/2018 10:42:12 80.65, -17.56 99.53 3.30 43
7 11/11/2018 11:32:23 -80.67, 149.96 80.46 11/11/2018 11:33:12 -80.67, 150.04 80.49 1.55 49
8 11/13/2018 16:16:39 -80.66, 79.02 79.89 11/13/2018 16:15:44 -80.64, 78.86 79.87 3.21 55
9 11/13/2018 17:06:05 80.66,-113.38 100.13 11/13/2018 17:06:43 80.66,-113.33 100.12 0.92 38
10 11/15/2018 21:50:21 80.65, 175.65 100.69 11/15/2018 21:49:15 80.65, 175.66 100.71 0.55 66




NCC Satellite Simultaneous Nadir Overpasses (SNOs) Prediction Service
